Location: Hobart
(42.8819°S, 147.3238°E)
Time: 05:24:57
(UTC+10:00)

Hubble Space Telescope - Pass Details

Date: 11 May 2015
Orbit: 536 x 540 km, 28.5° (Epoch: 18 June)

Event Time Altitude Azimuth Distance (km) Brightness Sun altitude
Exits shadow 05:10:40 10° 350° (N) 1,826 3.4 -22.2°
Reaches altitude 10° 05:10:59 10° 355° (N) 1,799 3.4 -22.1°
Maximum altitude 05:11:45 10° 5° (N) 1,772 3.5 -22.0°
Drops below altitude 10° 05:12:32 10° 16° (NNE) 1,800 3.7 -21.8°
Sets 05:16:45 0° 57° (ENE) 2,695 5.4 -21.0°
